{"data":{"norad_id":49059,"epoch":"2026-05-25T04:18:49.274208Z","epoch_age_seconds":55928,"freshness":"FRESH","line1":"1 49059U 21070A   26145.17973697  .00000068  00000+0  40966-4 0  9996","line2":"2 49059  89.0055 221.0519 0003696  95.8915 264.2682 13.94389168244728","mean_motion":13.94389168,"eccentricity":0.0003696,"inclination_deg":89.0055,"raan_deg":221.0519,"arg_perigee_deg":95.8915,"mean_anomaly_deg":264.2682,"bstar":4.0966e-5,"rev_number":24472,"period_min":103.27102598376,"perigee_km":910.59467949638,"apogee_km":915.98450203227,"semimajor_km":7291.4265907643,"source":"CELESTRAK","updated_at":"2026-05-25T13:37:57.052319Z"}}